Regional Weather Roundup
Issued by NWS

Home | Current Version | Previous Version | Graphics & Text | Print | Product List | Glossary On
Versions: 1 2 3 4 5 6 7 8 9 10 11 12 13 14 15 16 17 18 19 20 21 22 23 24 25 26 27 28 29 30 31 32 33 34 35 36 37 38 39 40 41 42 43 44 45 46 47 48 49 50
767
ASUS45 KABQ 291010
RWRNM
NEW MEXICO REGIONAL WEATHER ROUNDUP
NATIONAL WEATHER SERVICE ALBUQUERQUE NM
400 AM MDT SUN MAY 29 2016

NOTE: "FAIR" MEANS FEW OR NO CLOUDS BELOW 12,000 FEET AGL WITH NO
       SIGNIFICANT WEATHER OR OBSTRUCTIONS TO VISION.

      THIS PRODUCT IS RELEASED AS TWO VERSIONS.  ONE VERSION NEAR
      THE TOP OF THE HOUR CONTAINING PRELIMINARY DATA FROM ALBUQUERQUE
      AND OTHER STATIONS.  A FINAL VERSION WITH ADDITIONAL DATA IS
      ISSUED ABOUT 10 MINUTES AFTER THE HOUR.

NMZ501-503-504-510>518-291100-
NORTHWEST PLATEAU/NORTHCENTRAL MOUNTAINS

CITY           SKY/WX    TMP DP  RH WIND       PRES   REMARKS
FARMINGTON     FAIR      55  29  36 SE5       30.10R
LOS ALAMOS     FAIR      55  23  28 N7        30.23S
SANTA FE       FAIR      50  21  32 NE10      30.16S
TAOS           FAIR      46  25  42 E10       30.23F
ANGEL FIRE     FAIR      31  26  79 CALM      30.33R

$$
NMZ402-403-502-505>509-291100-
WESTCENTRAL MOUNTAINS/SOUTHWEST MOUNTAINS

CITY           SKY/WX    TMP DP  RH WIND       PRES   REMARKS
GALLUP         FAIR      43  28  55 SE3       30.15S
GRANTS         FAIR      39  23  52 CALM      30.18S
SILVER CITY      N/A     50   9  18 N8        30.15S

$$
NMZ407-409-411-412-291100-
SOUTHERN DESERTS

CITY           SKY/WX    TMP DP  RH WIND       PRES   REMARKS
LORDSBURG      FAIR      54   3  13 CALM      30.07S
DEMING         FAIR      57   8  14 W7        30.07F
LAS CRUCES     FAIR      61   6  11 CALM      30.08R
HOLLOMAN AFB   FAIR      59  16  18 E9        30.03S
ALAMOGORDO     FAIR      63  10  13 NE7       30.06S
T OR C         FAIR      57   9  14 W7        30.06R

$$
NMZ519>523-291100-
CENTRAL VALLEYS/CENTRAL HIGHLANDS

CITY           SKY/WX    TMP DP  RH WIND       PRES   REMARKS
ALBUQUERQUE    FAIR      59  17  19 CALM      30.10R
MORIARTY ARPT  FAIR      33  20  59 CALM      30.18R
CLINES CORNERS FAIR      50  19  29 S7        30.19R
BELEN          FAIR      54   9  16 S7        30.09R
SOCORRO        FAIR      53  11  19 SW8       30.06S

$$
NMZ524>526-539-540-291100-
SOUTHCENTRAL MOUNTAINS

CITY           SKY/WX    TMP DP  RH WIND       PRES   REMARKS
RUIDOSO          N/A     54   9  16 CALM      30.22S

$$
NMZ527>531-291100-
NORTHEAST HIGHLANDS/NORTHEAST PLAINS

CITY           SKY/WX    TMP DP  RH WIND       PRES   REMARKS
LAS VEGAS      FAIR      44  23  43 NE8       30.21S
RATON          FAIR      50  34  54 NE5       30.20R
CLAYTON        FAIR      56  46  69 NW5       30.16R

$$
NMZ532>537-291100-
EASTCENTRAL PLAINS

CITY           SKY/WX    TMP DP  RH WIND       PRES   REMARKS
TUCUMCARI      FAIR      61  48  62 S6        30.07R
CANNON AFB     MOCLDY    57  50  77 S2        30.12R
CLOVIS AIRPORT MOCLDY    55  46  71 SE7       30.12R

$$
NMZ028-029-538-291100-
SOUTHEAST PLAINS

CITY           SKY/WX    TMP DP  RH WIND       PRES   REMARKS
ROSWELL        FAIR      62  35  36 N6        30.03R
ARTESIA        FAIR      61  34  36 W3        30.02R
CARLSBAD       FAIR      71  62  73 E9        29.99R
HOBBS          MOCLDY    64  64 100 E15G24    30.06R


$$




USA.gov is the U.S. government's official web portal to all federal, state and local government web resources and services.